Location: *
(17.3280°S, 114.7300°W)
Time: 07:31:04
(UTC+00:00)

Cosmos 1709 Rocket - Pass Details

Date: 05 August 2020
Orbit: 947 x 1003 km, 82.9° (Epoch: 20 September)

Event Time Altitude Azimuth Distance (km) Brightness Sun altitude
Rises 13:07:35 0° 356° (N) 3,602 7.1 -13.5°
Reaches altitude 10° 13:10:03 10° 356° (N) 2,660 6.4 -13.0°
Maximum altitude 13:16:08 88° 269° (W) 955 3.9 -11.6°
Drops below altitude 10° 13:22:17 10° 177° (S) 2,687 6.2 -10.1°
Sets 13:24:48 0° 176° (S) 3,641 6.9 -9.6°
